DW2802 Ogijares ES current weather conditions

sailwx.info

Wind from 231

Air temperature 5.0° C
Dewpoint 4.0° C

Last reported at 2019-Nov-12 05:00 UTC.
Time now 2019-Nov-12 05:56 UTC

Location: N 37°07' W 003°36'.
View on Google Maps.

See reports from other nearby stations

  
Tides and Currents Weather Stations Pressure Air Temp Water Temp Dewpoint Dewpoint Depression Visibility Wind Speed Wind Dir Waves Ship Positions
date/time (UTC)wind fromknots sea level pressurealtimeterstation pressurevisibilityair tempwater tempwave heightnotes
2019-Nov-12 05:00 231 5.0
2019-Nov-12 04:45 231 5.0
2019-Nov-12 04:30 231 0 gusting 1 5.6
2019-Nov-12 04:15 231 0 gusting 2 5.6
2019-Nov-12 04:00 231 1 gusting 2 5.6
2019-Nov-12 03:45 231 0 gusting 2 6.1
2019-Nov-12 03:30 231 0 gusting 3 6.1
2019-Nov-12 03:15 231 1 gusting 4 5.6
2019-Nov-12 03:00 231 1 gusting 2 5.6
2019-Nov-12 02:45 231 2 gusting 4 6.1
2019-Nov-12 02:17 231 0 gusting 2 5.6
2019-Nov-12 02:02 231 1 gusting 2 6.1
2019-Nov-12 01:47 231 1 gusting 2 6.1
2019-Nov-12 01:31 231 6.1
2019-Nov-12 01:16 232 2 gusting 4 6.1
2019-Nov-12 01:01 250 0 gusting 3 6.7
2019-Nov-12 00:47 252 2 gusting 4 6.7
2019-Nov-12 00:32 296 3 gusting 4 6.7
2019-Nov-12 00:16 308 1 gusting 3 7.2
2019-Nov-12 00:02 308 1 gusting 3 7.2
2019-Nov-11 23:47 308 0 gusting 3 7.2
2019-Nov-11 23:31 308 0 gusting 3 7.2
2019-Nov-11 23:16 308 1 gusting 2 7.2
2019-Nov-11 23:01 308 7.2
2019-Nov-11 22:46 308 7.8
2019-Nov-11 22:31 308 0 gusting 2 7.8
2019-Nov-11 22:16 306 1 gusting 6 8.3
2019-Nov-11 22:00 300 4 gusting 8 8.3
2019-Nov-11 21:45 297 2 gusting 4 8.3
2019-Nov-11 21:31 297 8.3
2019-Nov-11 21:16 298 0 gusting 4 8.3
2019-Nov-11 21:00 298 1 gusting 7 8.9
2019-Nov-11 20:46 304 3 gusting 6 8.9
2019-Nov-11 20:30 307 2 gusting 7 8.9
2019-Nov-11 20:16 317 1 gusting 7 9.4
2019-Nov-11 20:00 315 2 gusting 6 9.4
2019-Nov-11 19:46 310 4 gusting 7 9.4
2019-Nov-11 19:30 305 1 gusting 4 9.4
2019-Nov-11 19:15 306 1 gusting 7 10.0
2019-Nov-11 19:00 327 3 gusting 8 10.0
2019-Nov-11 18:45 336 3 gusting 10 10.0
2019-Nov-11 18:30 336 4 gusting 10 10.0
2019-Nov-11 18:16 325 4 gusting 10 10.0
2019-Nov-11 18:01 334 6 gusting 10 10.6
2019-Nov-11 17:45 340 5 gusting 10 10.6
2019-Nov-11 17:30 338 6 gusting 13 10.6
2019-Nov-11 17:15 350 5 gusting 9 10.6
2019-Nov-11 17:01 340 4 gusting 13 10.6
2019-Nov-11 16:45 346 8 gusting 13 10.6
2019-Nov-11 16:30 332 8 gusting 13 11.1
2019-Nov-11 16:15 324 7 gusting 13 11.1
2019-Nov-11 16:00 327 6 gusting 13 11.7
2019-Nov-11 15:45 345 6 gusting 11 11.7
2019-Nov-11 15:30 355 6 gusting 11 11.7
2019-Nov-11 15:15 324 7 gusting 14 11.1
2019-Nov-11 15:00 317 6 gusting 15 11.1
2019-Nov-11 14:45 311 7 gusting 16 11.1
2019-Nov-11 14:30 326 6 gusting 13 11.1
2019-Nov-11 14:18 345 5 gusting 7 11.1
2019-Nov-11 14:01 029 5 gusting 11 11.1
2019-Nov-11 13:46 322 7 gusting 12 11.1
2019-Nov-11 13:31 326 7 gusting 14 11.1
2019-Nov-11 13:16 347 8 gusting 13 11.1
2019-Nov-11 13:01 317 7 gusting 16 10.6
2019-Nov-11 12:46 315 6 gusting 14 10.6
2019-Nov-11 12:32 342 6 gusting 13 11.1
2019-Nov-11 12:16 332 6 gusting 10 10.6
2019-Nov-11 12:01 318 6 gusting 10 10.0
2019-Nov-11 11:46 009 5 gusting 9 9.4
2019-Nov-11 11:31 349 4 gusting 8 8.9
2019-Nov-11 11:16 355 5 gusting 7 8.9
2019-Nov-11 11:00 030 1 gusting 5 8.3
2019-Nov-11 10:45 034 5 gusting 7 7.8
2019-Nov-11 10:30 005 5 gusting 7 7.2
2019-Nov-11 10:15 331 2 gusting 6 6.7
2019-Nov-11 10:00 334 1 gusting 6 6.7
2019-Nov-11 09:46 338 2 gusting 5 6.7
2019-Nov-11 09:30 335 1 gusting 4 6.1
2019-Nov-11 09:15 335 1 gusting 3 6.1
2019-Nov-11 09:00 335 1 gusting 2 5.6
2019-Nov-11 08:45 335 0 gusting 2 5.6
2019-Nov-11 08:30 335 1 gusting 3 5.6
2019-Nov-11 08:15 335 5.0
2019-Nov-11 08:00 336 1 gusting 3 5.0
2019-Nov-11 07:48 338 1 gusting 4 5.0
2019-Nov-11 07:32 340 0 gusting 2 4.4
2019-Nov-11 07:16 340 0 gusting 2 4.4
2019-Nov-11 07:01 340 0 gusting 3 4.4
2019-Nov-11 06:46 340 2 gusting 4 4.4
2019-Nov-11 06:31 340 2 gusting 6 4.4
2019-Nov-11 06:16 345 1 gusting 6 4.4
2019-Nov-11 06:01 336 1 gusting 5 4.4
2019-Nov-11 05:47 344 1 gusting 3 4.4
2019-Nov-11 05:31 344 1 gusting 4 4.4
2019-Nov-11 05:17 346 0 gusting 6 5.0
2019-Nov-11 05:01 345 3 gusting 5 5.0
2019-Nov-11 04:46 344 2 gusting 7 5.6
2019-Nov-11 04:32 342 4 gusting 6 5.0
2019-Nov-11 04:16 340 1 gusting 5 5.6
2019-Nov-11 04:00 342 2 gusting 3 5.6
2019-Nov-11 03:46 342 3 gusting 6 5.6
2019-Nov-11 03:31 342 5.6
2019-Nov-11 03:16 343 4 gusting 9 5.6
2019-Nov-11 03:00 342 5 gusting 9 6.1
2019-Nov-11 02:46 338 5 gusting 11 6.1
2019-Nov-11 02:31 341 5 gusting 8 6.1
2019-Nov-11 02:15 344 4 gusting 9 6.1
2019-Nov-11 02:00 336 6 gusting 10 6.1
2019-Nov-11 01:45 355 3 gusting 7 6.7
2019-Nov-11 01:30 350 6 gusting 9 6.7
2019-Nov-11 01:15 350 5 gusting 9 6.7
2019-Nov-11 01:00 343 6 gusting 11 7.2
2019-Nov-11 00:45 340 6 gusting 11 7.2
2019-Nov-11 00:30 343 5 gusting 9 7.2
2019-Nov-11 00:15 344 6 gusting 9 7.2
2019-Nov-11 00:01 338 5 gusting 8 7.2
2019-Nov-10 23:47 347 4 gusting 8 7.8
2019-Nov-10 23:32 012 6 gusting 9 7.2
2019-Nov-10 23:16 038 4 gusting 8 7.2
2019-Nov-10 23:01 044 3 gusting 9 7.2
2019-Nov-10 22:47 046 5 gusting 8 7.2
2019-Nov-10 22:31 024 3 gusting 9 7.2
2019-Nov-10 22:16 019 6 gusting 8 7.2
2019-Nov-10 22:01 027 4 gusting 9 7.2
2019-Nov-10 21:47 360 5 gusting 9 7.2
2019-Nov-10 21:31 355 2 gusting 8 7.2
2019-Nov-10 21:16 341 4 gusting 10 7.8
2019-Nov-10 21:01 327 3 gusting 9 7.8
2019-Nov-10 20:46 348 3 gusting 8 7.8
2019-Nov-10 20:31 340 5 gusting 10 7.8
2019-Nov-10 20:16 348 2 gusting 8 8.3
2019-Nov-10 20:01 355 3 gusting 11 8.3
2019-Nov-10 19:46 348 3 gusting 12 8.3
2019-Nov-10 19:30 341 5 gusting 10 8.3
2019-Nov-10 19:15 346 5 gusting 10 8.3
2019-Nov-10 19:00 347 4 gusting 11 8.3
2019-Nov-10 18:45 348 5 gusting 10 8.3
2019-Nov-10 18:31 349 6 gusting 11 8.9
2019-Nov-10 18:15 350 6 gusting 13 8.9
2019-Nov-10 18:00 350 7 gusting 14 8.9
2019-Nov-10 17:46 342 5 gusting 14 8.9
2019-Nov-10 17:30 338 9 gusting 17 8.9
2019-Nov-10 17:15 338 10 gusting 18 8.9
2019-Nov-10 17:00 348 11 gusting 16 9.4
2019-Nov-10 16:45 333 6 gusting 15 9.4
2019-Nov-10 16:30 346 13 gusting 19 9.4
2019-Nov-10 16:15 317 12 gusting 19 9.4
2019-Nov-10 16:00 321 10 gusting 19 10.0
2019-Nov-10 15:45 322 10 gusting 18 10.0
2019-Nov-10 15:30 340 6 gusting 12 10.0
2019-Nov-10 15:15 333 10 gusting 16 10.0
2019-Nov-10 15:00 338 12 gusting 17 10.0
2019-Nov-10 14:45 311 10 gusting 17 10.0
2019-Nov-10 14:30 320 8 gusting 17 10.0
2019-Nov-10 14:16 323 11 gusting 19 10.0
2019-Nov-10 14:00 333 13 gusting 19 10.6
2019-Nov-10 13:45 336 9 gusting 19 10.6
2019-Nov-10 13:30 355 9 gusting 17 10.6
2019-Nov-10 13:15 325 9 gusting 14 10.6
2019-Nov-10 13:00 014 11 gusting 16 10.6
2019-Nov-10 12:45 319 6 gusting 13 10.6
2019-Nov-10 12:30 333 7 gusting 13 10.6
2019-Nov-10 12:15 325 6 gusting 13 10.6
2019-Nov-10 12:02 325 7 gusting 15 10.6
2019-Nov-10 11:47 314 6 gusting 13 10.0
2019-Nov-10 11:32 355 8 gusting 13 10.0
2019-Nov-10 11:17 323 6 gusting 12 9.4
2019-Nov-10 11:02 346 6 gusting 12 9.4
2019-Nov-10 10:47 355 6 gusting 12 9.4
2019-Nov-10 10:31 345 6 gusting 13 9.4
2019-Nov-10 10:17 346 8 gusting 14 8.9
2019-Nov-10 10:01 337 8 gusting 13 8.9
2019-Nov-10 09:46 327 8 gusting 14 8.9
2019-Nov-10 09:32 331 7 gusting 16 8.9
2019-Nov-10 09:16 327 9 gusting 14 8.9
2019-Nov-10 09:00 336 8 gusting 14 8.9
2019-Nov-10 08:46 319 9 gusting 14 8.9
2019-Nov-10 08:30 350 5 gusting 13 8.9
2019-Nov-10 08:16 005 7 gusting 13 8.3
2019-Nov-10 08:01 011 2 gusting 7 8.3
2019-Nov-10 07:45 343 2 gusting 5 8.3
2019-Nov-10 07:30 333 1 gusting 2 8.3
2019-Nov-10 07:15 332 1 gusting 3 8.3
2019-Nov-10 07:00 334 1 gusting 7 8.9
2019-Nov-10 06:46 338 3 gusting 13 8.9
2019-Nov-10 06:30 335 6 gusting 8 8.9
2019-Nov-10 06:15 342 0 gusting 2 8.9
2019-Nov-10 06:00 342 1 gusting 5 8.9
2019-Nov-10 05:45 342 1 gusting 3 8.9
2019-Nov-10 05:30 342 0 gusting 3 8.9
2019-Nov-10 05:15 342 8.3